Location: Lepa Nijva
(46.3667°N, 14.9833°E)
Time: 18:25:46
(UTC+00:00)

Daily predictions for brighter satellites

Satellite Brightness Start Highest point End
(mag) Time Altitude Azimuth Time Altitude Azimuth Time Altitude Azimuth
Meteor 1-11 4.3 16:12:49 10° N 16:18:35 77° ENE 16:24:21 10° SSE
H-2A R/B 3.7 16:15:25 10° S 16:19:46 52° W 16:24:12 10° NNW
USA 306 3.8 16:17:25 10° NW 16:21:24 36° NNE 16:25:22 10° E
Cosmos 1689 Rocket 3.9 16:20:01 10° ENE 16:21:38 14° E 16:23:15 10° SE
Cosmos 1953 Rocket 3.8 16:17:41 10° N 16:21:59 48° ENE 16:26:17 10° SSE
CZ-4B R/B 1.7 16:20:24 10° NNE 16:23:29 40° E 16:26:27 10° S
FengYun 1-2 T 4.3 16:18:42 10° SSE 16:24:15 60° ENE 16:29:47 10° N
CZ-4C R/B 4.3 16:21:19 10° NNW 16:25:41 19° N 16:30:34 10° NE
Cosmos 2058 Rocket 3.8 16:23:13 10° SSE 16:27:14 33° E 16:31:18 10° NNE
CZ-2C R/B 4.3 16:23:42 10° ESE 16:28:13 24° ENE 16:32:38 10° N
Cosmos 1455 3.8 16:37:11 10° ESE 16:39:16 14° E 16:41:22 10° NE
YAOGAN 6 4.0 16:36:01 10° S 16:39:31 44° W 16:43:04 10° NNW
Cosmos 2219 3.2 16:36:38 10° NNW 16:42:23 65° ENE 16:48:05 10° SE
BREEZE-M R/B 3.5 16:44:43 10° WNW 16:48:11 58° N 16:53:44 14° E
ATLAS 5 CENTAUR R/B 4.1 16:47:18 10° NW 16:49:41 14° NNW 16:52:13 10° NNE
H-2A R/B 3.6 16:45:54 10° N 16:49:43 36° WNW 16:53:28 10° SW
COSMO-SKYMED 1 2.9 16:45:36 10° NNE 16:49:47 45° E 16:53:56 10° S
Feng Yun 1-1 Rocket 4.4 16:44:11 10° SSE 16:50:04 75° ENE 16:56:00 10° NNW
Cosmos 2082 4.3 16:44:57 10° NNW 16:50:13 36° NE 16:55:28 10° ESE
Cosmos 44 3.4 16:46:39 10° SW 16:51:09 74° NW 16:55:58 10° NNE
H-2A R/B 3.0 16:50:38 10° ESE 16:55:09 28° ENE 16:59:41 10° N
S3M 4.4 16:50:27 10° SSE 16:55:58 37° E 17:01:31 10° NNE
ARGOS 4.3 16:54:30 13° ESE 16:57:56 23° ENE 17:02:04 10° N
Cosmos 1656 3.7 16:55:47 10° S 17:01:14 61° ESE 17:06:48 10° NNE
Cosmos 1939 Rocket 2.7 16:58:46 10° SSE 17:02:43 74° ENE 17:06:38 10° N
Meteor 2-8 Rocket 4.4 16:57:24 10° S 17:03:28 70° E 17:09:35 10° NNE
YAOGAN 1 3.0 16:59:36 10° SE 17:03:36 37° ENE 17:07:36 10° N
GEOS 3 Rocket 4.4 17:00:24 17° E 17:03:56 35° NE 17:08:48 10° NNW
USA 307 3.2 17:00:45 10° NW 17:04:56 50° NNE 17:07:25 22° E
Cosmos 2369 4.4 17:00:04 10° SSE 17:05:00 31° ESE 17:09:18 13° NE
SeaSat 1 3.7 17:03:40 18° ENE 17:05:26 22° NE 17:09:13 10° N
Okean O Rocket 3.4 17:02:14 10° SSW 17:06:13 34° W 17:10:12 10° NNW
NOSS 3-3 (A) 4.3 17:01:17 10° S 17:06:37 40° ESE 17:11:34 14° NE
NOSS 3-3 (C) 4.3 17:01:25 10° S 17:06:45 40° ESE 17:11:38 15° NE
USA 308 3.2 17:05:40 10° NW 17:09:53 53° NNE 17:12:08 25° E
Cosmos 1812 Rocket 4.4 17:06:14 10° SE 17:09:56 27° E 17:13:37 10° NNE
Cosmos 1408 3.0 17:06:37 10° N 17:10:04 37° ENE 17:13:30 10° SE
USA 215 4.1 17:07:14 16° ENE 17:11:47 36° N 17:17:38 10° NW
Cosmos 1726 Rocket 4.4 17:09:04 10° SSW 17:13:18 52° WNW 17:17:37 10° N
SKYMED 3 4.5 17:09:30 10° NNE 17:13:53 80° ESE 17:18:13 10° S
Cosmos 2227 Rocket 2.1 17:09:12 10° NNW 17:14:54 86° ENE 17:20:34 10° SSE
Helios 1A Rocket 2.8 17:10:51 10° SSE 17:14:57 70° ENE 17:19:02 10° N
CZ-4 R/B 4.3 17:11:10 10° SSE 17:15:19 80° ENE 17:19:31 10° N
Cosmos 1892 2.6 17:12:07 10° N 17:16:00 71° E 17:19:52 10° SSE
CSL-04 Rocket 4.1 17:12:09 10° SE 17:17:18 41° ENE 17:22:27 10° N
Aureole 3 Rocket 3.3 17:13:45 10° SSW 17:17:46 81° W 17:23:26 10° N
Cosmos 1400 Rocket 3.1 17:14:07 10° SSW 17:18:13 70° WNW 17:22:19 10° N
Cosmos 2263 Rocket 3.5 17:14:15 10° N 17:18:29 21° NE 17:19:27 20° ENE
ATLAS 2AS CENTAUR R/B 3.7 17:11:43 10° NNW 17:18:30 33° NNE 17:22:01 22° ENE
MOS 1 Rocket 3.9 17:15:08 10° NNE 17:19:26 34° E 17:23:56 10° SSE
IRS-1C Rocket 4.3 17:16:11 10° S 17:21:27 76° WSW 17:26:46 10° NNW
Cosmos 968 Rocket 3.4 17:19:08 10° NNW 17:24:23 88° ENE 17:29:33 10° SSE
Cosmos 1553 Rocket 4.0 17:18:25 10° S 17:24:47 84° E 17:31:04 10° N
Meteor 2-15 Rocket 4.5 17:19:12 10° SSE 17:25:08 54° E 17:31:07 10° NNE
FALCON 9 DEB 3.8 17:25:32 10° W 17:28:38 42° NNW 17:29:34 32° NNE
CZ-4 R/B 1.1 17:24:54 10° SSE 17:28:46 79° ENE 17:32:38 10° N
Atlas Centaur 2 4.4 17:22:26 10° SW 17:28:52 25° S 17:33:49 15° SE
Cosmos 1697 Rocket 2.7 17:24:38 10° S 17:30:06 56° ESE 17:34:45 14° NE
Lacrosse 5 3.3 17:26:04 10° NW 17:30:15 25° N 17:32:14 20° NE
FALCON 9 DEB 3.9 17:28:43 10° W 17:31:45 39° NNW 17:32:31 33° NNE
Cosmos 2058 2.7 17:28:56 10° N 17:33:04 78° E 17:37:09 10° SSE
PSLV R/B 4.1 17:29:51 10° N 17:34:02 76° WNW 17:38:10 10° SSW
Meteor 2-1 Rocket 4.1 17:28:50 10° S 17:34:16 65° E 17:39:45 10° NNE
Cosmos 1825 2.3 17:30:45 10° N 17:34:21 47° ENE 17:34:21 47° ENE
CZ-2D R/B 3.7 17:33:08 10° S 17:36:54 60° W 17:40:40 10° NNW
Meteor 2-15 4.3 17:30:54 10° S 17:37:03 83° E 17:43:14 10° N
SKYMED 2 4.2 17:33:37 10° N 17:37:54 58° WNW 17:42:09 10° SSW
Cosmos 44 Rocket 3.7 17:33:47 10° S 17:38:10 38° ESE 17:38:24 38° ESE
Timation 1 Rocket 4.4 17:33:01 10° NNW 17:38:56 55° ENE 17:41:44 30° ESE
FALCON 9 DEB 3.9 17:37:48 10° NW 17:40:54 38° N 17:40:54 38° N
Okean-O 2.8 17:37:00 10° S 17:41:24 72° WSW 17:45:51 10° NNW
Cosmos 220 Rocket 3.9 17:37:39 10° SSW 17:42:01 85° ESE 17:45:06 20° NNE
SL-4 R/B 2.1 17:39:06 10° WNW 17:42:36 47° NNE 17:42:47 47° NNE
Cosmos 1346 Rocket 2.9 17:38:49 10° NNW 17:42:49 77° W 17:46:47 10° S
FALCON 9 DEB 4.1 17:42:08 10° W 17:45:10 35° NNW 17:45:25 35° N
Cosmos 1315 Rocket 2.7 17:46:43 10° S 17:50:40 88° WNW 17:54:02 14° N
Cosmos 1745 Rocket 4.1 17:44:35 10° N 17:50:54 81° W 17:57:15 10° S
Cosmos 1689 Rocket 4.3 17:50:23 10° NNW 17:52:51 25° WNW 17:55:18 10° SW
Cosmos 1980 Rocket 2.4 17:47:55 10° S 17:53:16 46° ESE 17:53:26 46° ESE
Cosmos 2297 Rocket 3.5 17:49:10 10° NW 17:54:24 40° WSW 17:59:36 10° S
USA 305 2.8 17:50:57 10° WNW 17:55:16 86° SW 17:55:45 70° SE
FALCON 9 DEB 4.4 17:52:53 10° W 17:55:34 31° NNW 17:55:34 31° NNW
CSL-04 Debris 4.1 17:53:30 10° SSE 17:58:57 89° WSW 18:04:27 10° NNW
Cosmos 1503 Rocket 4.0 17:54:14 10° NNW 17:59:28 79° WSW 18:03:10 20° SSE
USA 306 2.8 17:57:26 10° WNW 18:01:44 79° SW 18:01:57 76° S
DMSP B5D1-3 4.4 17:59:46 10° NNE 18:04:57 90° ENE 18:10:07 10° SSW
CZ-2C R/B 3.8 18:01:58 10° S 18:07:40 61° W 18:13:15 10° NNW
Cosmos 1354 Rocket 4.2 18:06:24 10° NNW 18:11:39 71° WSW 18:14:14 30° S
Cosmos 2360 4.1 18:07:14 10° SSW 18:12:58 90° WNW 18:15:32 35° NNE
Cosmos 1455 3.3 18:10:52 10° SSW 18:14:29 43° WNW 18:17:16 16° N
CZ-4C R/B 3.5 18:10:02 10° NNW 18:16:19 36° NE 18:16:59 35° NE
Cosmos 1709 Rocket 4.0 18:14:10 10° N 18:20:35 83° W 18:26:58 10° S
Cosmos 2278 3.5 18:19:01 10° SSW 18:24:43 83° ESE 18:24:51 82° E
Ariane Rocket 4.2 18:30:46 32° N 18:30:46 32° N 18:33:33 10° N
Meteor 2-3 Rocket 4.2 18:22:52 10° N 18:27:07 48° NNE 18:27:07 48° NNE
Geosat 4.2 18:29:49 53° N 18:30:49 66° WNW 18:35:47 10° SW
H-2A R/B 3.0 18:29:03 10° S 18:34:16 49° W 18:39:35 10° NNW
ATLAS 5 CENTAUR R/B 4.3 18:34:23 10° NNW 18:36:16 12° N 18:36:16 12° N
ARGOS 3.6 18:36:01 41° SSW 18:37:46 61° W 18:43:09 10° NNW
GEOS 3 Rocket 4.0 18:41:31 59° SW 18:41:45 59° SW 18:47:05 10° NW
SeaSat 1 3.0 18:43:27 56° WNW 18:43:27 56° WNW 18:47:29 10° NNW
Cosmos 2315 Rocket 4.1 18:36:33 10° SSW 18:42:43 71° W 18:48:56 10° N
NOSS 3-4 (A) 3.7 18:41:12 10° NW 18:48:14 88° NE 18:48:36 82° SE
NOSS 3-4 (C) 3.7 18:41:19 10° NW 18:48:20 87° NE 18:48:40 83° ESE
DEBRIS 4.1 18:36:55 10° WSW 18:51:50 79° NNW 18:51:51 79° NNW
USA 215 3.5 18:54:35 59° N 18:54:35 59° N 19:00:33 10° NW
Cosmos 2263 Rocket 3.1 18:57:26 10° NNW 19:01:09 43° NNW 19:01:09 43° NNW
ATLAS 2AS CENTAUR R/B 2.9 19:02:52 10° NW 19:09:28 71° NW 19:09:28 71° NW
BREEZE-M R/B 4.5 19:06:07 10° WNW 19:10:34 65° WSW 19:10:34 65° WSW
Lacrosse 5 3.9 19:09:21 10° NW 19:11:26 23° NNW 19:11:26 23° NNW
Cosmos 1697 Rocket 4.5 19:09:37 10° WSW 19:14:24 28° NW 19:16:32 22° NNW
Atlas Centaur 2 4.5 19:11:03 10° WSW 19:16:24 23° SSW 19:16:24 23° SSW
Cosmos 1980 Rocket 4.1 19:32:23 10° WSW 19:35:17 25° W 19:35:17 25° W
CZ-4C R/B 4.1 19:58:20 10° NW 20:02:11 37° NW 20:02:11 37° NW
